Weather Roundup
Issued by NWS Springfield, MO

Home | Current Version | Previous Version | Text Only | Print | Product List | Glossary On
Versions: 1 2 3 4 5 6 7 8 9 10 11 12 13 14 15 16 17 18 19 20 21 22 23 24 25 26 27 28 29 30 31 32 33 34 35 36 37 38 39 40 41 42 43 44 45 46 47 48 49 50
000
NZUS99 KSGF 191407
HRRSGF

HOURLY WEATHER
NATIONAL WEATHER SERVICE SPRINGFIELD MO
900 AM CDT SUN APR 19 2015

......SGF CWA......

CITY           SKY/WX    TMP DP  RH WIND       PRES   REMARKS
SPRINGFIELD    MOSUNNY   60  54  80 NE8       29.66F
JOPLIN         CLOUDY    57  52  83 W5        29.72R
WEST PLAINS    CLOUDY    62  58  86 NW9       29.68F
ROLLA          CLOUDY    59  58  96 W6        29.65F
OSAGE BEACH    CLOUDY    57  55  94 E5        29.68F
BRANSON        PTSUNNY   57  54  88 CALM      29.70S

......SURROUNDING SGF CWA......

CITY           SKY/WX    TMP DP  RH WIND       PRES   REMARKS
CHANUTE        CLOUDY    57  55  93 NW9       29.74R
PARSONS        CLOUDY    56  55  97 NW9       29.77R
COFFEYVILLE    CLOUDY    57  54  89 W7        29.74R
EMPORIA        CLOUDY    54  52  93 W7        29.75R
GROVE OK       CLOUDY    59  59 100 SW3       29.73S
ROGERS AR      CLOUDY    57  51  80 S5        29.73R
SILOAM SPRINGS CLOUDY    55  48  76 SE3       29.74S
HARRISON AR    PTSUNNY   57  55  93 W5        29.70R
NEAR YELLVILLE PTSUNNY   63 N/A N/A CALM      29.65F

......KANSAS AND MISSOURI......

CITY           SKY/WX    TMP DP  RH WIND       PRES   REMARKS
KANSAS CTY INT CLOUDY    55  53  93 NW9       29.71R
DOWNTOWN KC    CLOUDY    57  53  86 NW9       29.70F
COLUMBIA       RAIN      58  57  97 W7        29.69S FOG
SEDALIA        FOG       59  57  93 E8        29.66F VSB 1/4
ST JOSEPH      CLOUDY    56  53  90 N3        29.72S
ST LOUIS       CLOUDY    66  56  70 NE3       29.67F
SPIRIT OF STL  LGT RAIN  65  56  72 CALM      29.65F
KIRKSVILLE     MOSUNNY   62  58  86 N6        29.69F
WICHITA        CLOUDY    55  51  86 NW8       29.78R
TOPEKA         CLOUDY    56  53  90 NW8       29.74S
OLATHE         CLOUDY    57  53  86 NW7       29.71S

......TENNESSEE......

CITY           SKY/WX    TMP DP  RH WIND       PRES   REMARKS
MEMPHIS        CLOUDY    68  64  87 SW7       29.63F
NASHVILLE      RAIN      66  64  94 SE6       29.63F FOG

......ARKANSAS.......

CITY           SKY/WX    TMP DP  RH WIND       PRES   REMARKS
FAYETTEVILLE   CLOUDY    56  54  93 CALM      29.73R
FT SMITH       CLOUDY    61  56  83 SW7       29.72S
LITTLE ROCK    CLOUDY    65  61  87 W12       29.71R

......OKLAHOMA.......

CITY           SKY/WX    TMP DP  RH WIND       PRES   REMARKS
TULSA          CLOUDY    58  56  93 W14G25    29.76R
PONCA CITY     RAIN      55  51  86 SW8       29.79R
MCALESTER      MOSUNNY   60  56  86 SW7       29.75R
OKLAHOMA CITY  CLOUDY    58  50  75 N9        29.77S

......IOWA............

CITY           SKY/WX    TMP DP  RH WIND       PRES   REMARKS
DES MOINES     CLOUDY    60  57  89 E3        29.70F
QUAD CITIES    PTSUNNY   59  44  57 E6        29.74F

......ILLINOIS........

CITY           SKY/WX    TMP DP  RH WIND       PRES   REMARKS
QUINCY         MOSUNNY   63  50  62 E7        29.67F
CHICAGO        PTSUNNY   59  34  39 E8        29.81F




USA.gov is the U.S. government's official web portal to all federal, state and local government web resources and services.